Location: Central Coast
(33.3208°S, 151.2336°E)
Time: 23:29:28
(UTC+11:00)

Tiangong 2 - Pass Details

Date: 13 October 2017
Orbit: 388 x 392 km, 42.8° (Epoch: 19 October)

Event Time Altitude Azimuth Distance (km) Brightness Sun altitude
Rises 20:11:02 0° 235° (SW) 2,298 6.6 -13.9°
Reaches altitude 10° 20:13:16 10° 224° (SW) 1,438 5.0 -14.3°
Maximum altitude 20:16:13 31° 159° (SSE) 727 2.4 -14.9°
Enters shadow 20:17:24 23° 119° (ESE) 882 2.5 -15.2°
